Вернуться в каталог

CZ-2C DEB

АктивенSSO
NORAD 40264·DEBRIS·🇨🇳 China

Запущен Sep 28, 2014 с Jiuquan Satellite Launch Center

Loading…

Ближайшие Пролёты (ближайшие 24 часа)

TLE

СвежийSource: Space-Track

Эпоха: Sep 14, 2026, 05:11 UTC

1 40264U 14059D   26257.21639512  .00010762  00000-0  87880-3 0  9996
2 40264  97.8121 158.5041 0045553 185.2243 174.8510 14.98767824636486

Отслеживайте CZ-2C DEB в реальном времени с AllMySat

Download on the App Store